| time (UTC) | temp F | wind direction | speed knots | gust knots | rain 1hr in | rain 24hr in | rain mn in | humidity % | barometer mb |
| 20260505183053 | 79 | 295 | 6.1 | 20.0 | 0.00 | 0.00 | 0.00 | 33 | 1005.9 |
| 20260505181550 | 78 | 287 | 4.3 | 24.3 | 0.00 | 0.00 | 0.00 | 35 | 1006.5 |
| 20260505174609 | 78 | 256 | 7.0 | 18.2 | 0.00 | 0.00 | 0.00 | 35 | 1006.4 |
| 20260505173053 | 78 | 283 | 3.5 | 12.2 | 0.00 | 0.00 | 0.00 | 38 | 1006.4 |
| 20260505172013 | 78 | 252 | 6.1 | 15.6 | 0.00 | 0.00 | 0.00 | 37 | 1006.5 |
| 20260505153058 | 73 | 209 | 2.6 | 11.3 | 0.00 | 0.00 | 0.00 | 46 | 1007.8 |
| 20260505151554 | 74 | 235 | 0.9 | 5.2 | 0.00 | 0.00 | 0.00 | 45 | 1007.6 |
| 20260505124552 | 64 | 116 | 0.0 | 4.3 | 0.00 | 0.00 | 0.00 | 64 | 1008.5 |
| 20260505123107 | 61 | 218 | 0.9 | 2.6 | 0.00 | 0.00 | 0.00 | 67 | 1008.6 |
| 20260505121601 | 57 | 0 | 0.0 | 0.0 | 0.00 | 0.00 | 0.00 | 68 | 1008.8 |
| 20260505120058 | 54 | 0 | 0.0 | 2.6 | 0.00 | 0.00 | 0.00 | 58 | 1008.8 |
| 20260505114614 | 51 | 283 | 0.0 | 1.7 | 0.00 | 0.00 | 0.00 | 40 | 1008.8 |
| 20260505113058 | 50 | 321 | 0.0 | 0.9 | 0.00 | 0.00 | 0.00 | 48 | 1009.0 |
| 20260505111605 | 49 | 335 | 0.9 | 2.6 | 0.00 | 0.00 | 0.00 | 41 | 1008.9 |
| 20260505101548 | 46 | 57 | 1.7 | 3.5 | 0.00 | 0.00 | 0.00 | 31 | 1008.4 |
| 20260505100051 | 46 | 0 | 0.0 | 0.9 | 0.00 | 0.00 | 0.00 | 46 | 1008.5 |
| 20260505094550 | 47 | 0 | 0.0 | 0.0 | 0.00 | 0.00 | 0.00 | 53 | 1008.5 |
| 20260505093050 | 47 | 183 | 0.9 | 1.7 | 0.00 | 0.00 | 0.00 | 57 | 1008.2 |
| 20260505091549 | 48 | 22 | 0.0 | 0.9 | 0.00 | 0.00 | 0.00 | 64 | 1008.0 |
| 20260505090058 | 48 | 0 | 0.9 | 3.5 | 0.00 | 0.00 | 0.00 | 67 | 1008.1 |
| 20260505084557 | 48 | 199 | 0.9 | 3.5 | 0.00 | 0.00 | 0.00 | 68 | 1008.1 |
| 20260505083118 | 49 | 0 | 0.0 | 0.9 | 0.00 | 0.00 | 0.00 | 72 | 1008.1 |
| 20260505081557 | 50 | 20 | 0.0 | 4.3 | 0.00 | 0.00 | 0.00 | 72 | 1008.2 |
| 20260505080056 | 50 | 325 | 1.7 | 4.3 | 0.00 | 0.00 | 0.00 | 71 | 1008.4 |
| 20260505074552 | 48 | 0 | 0.0 | 3.5 | 0.00 | 0.00 | 0.00 | 68 | 1008.2 |
| 20260505073107 | 49 | 0 | 0.0 | 2.6 | 0.00 | 0.00 | 0.00 | 70 | 1008.2 |
| 20260505071552 | 49 | 321 | 0.0 | 0.9 | 0.00 | 0.00 | 0.00 | 72 | 1008.0 |
| 20260505070053 | 49 | 0 | 0.0 | 2.6 | 0.00 | 0.00 | 0.00 | 73 | 1008.1 |
| 20260505064601 | 50 | 0 | 0.0 | 0.9 | 0.00 | 0.00 | 0.00 | 73 | 1008.0 |
| 20260505063054 | 50 | 59 | 0.9 | 4.3 | 0.00 | 0.00 | 0.00 | 73 | 1008.0 |
| 20260505061554 | 51 | 0 | 0.0 | 1.7 | 0.00 | 0.00 | 0.00 | 72 | 1008.2 |
| 20260505054604 | 53 | 0 | 0.0 | 0.0 | 0.00 | 0.00 | 0.00 | 67 | 1008.4 |
| 20260505053109 | 56 | 0 | 0.0 | 2.6 | 0.00 | 0.00 | 0.00 | 60 | 1008.5 |
| 20260505051553 | 57 | 101 | 0.0 | 1.7 | 0.00 | 0.00 | 0.00 | 58 | 1008.6 |
| 20260505041612 | 57 | 58 | 1.7 | 4.3 | 0.00 | 0.00 | 0.00 | 58 | 1008.8 |
| 20260505040053 | 54 | 41 | 1.7 | 6.1 | 0.00 | 0.00 | 0.00 | 66 | 1008.7 |
| 20260505034549 | 54 | 0 | 1.7 | 2.6 | 0.00 | 0.00 | 0.00 | 66 | 1008.8 |
| 20260505033055 | 53 | 145 | 0.0 | 1.7 | 0.00 | 0.00 | 0.00 | 67 | 1008.8 |
| 20260505031559 | 54 | 145 | 0.0 | 3.5 | 0.00 | 0.00 | 0.00 | 66 | 1008.9 |
| 20260505030052 | 52 | 137 | 0.9 | 1.7 | 0.00 | 0.00 | 0.00 | 68 | 1008.9 |
| 20260505024551 | 53 | 34 | 0.9 | 3.5 | 0.00 | 0.00 | 0.00 | 66 | 1008.9 |
| 20260505023100 | 52 | 97 | 0.9 | 7.0 | 0.00 | 0.00 | 0.00 | 67 | 1008.9 |
| 20260505021552 | 50 | 353 | 0.9 | 1.7 | 0.00 | 0.00 | 0.00 | 72 | 1008.8 |
| 20260505020054 | 50 | 0 | 0.0 | 1.7 | 0.00 | 0.00 | 0.00 | 71 | 1008.9 |
| 20260505014550 | 51 | 141 | 0.0 | 0.9 | 0.00 | 0.00 | 0.00 | 70 | 1009.0 |
| 20260505013049 | 52 | 0 | 0.0 | 0.0 | 0.00 | 0.00 | 0.00 | 68 | 1008.9 |
| 20260505011552 | 52 | 0 | 0.0 | 1.7 | 0.00 | 0.00 | 0.00 | 66 | 1008.7 |
| 20260505010053 | 53 | 331 | 0.9 | 2.6 | 0.00 | 0.00 | 0.00 | 65 | 1008.3 |
| 20260505004552 | 55 | 0 | 0.0 | 2.6 | 0.00 | 0.00 | 0.00 | 62 | 1008.0 |
| 20260505003048 | 57 | 328 | 0.9 | 2.6 | 0.00 | 0.00 | 0.00 | 57 | 1007.9 |
| 20260505001552 | 59 | 325 | 0.9 | 2.6 | 0.00 | 0.00 | 0.00 | 54 | 1007.7 |
| 20260505000106 | 63 | 341 | 0.0 | 2.6 | 0.00 | 0.00 | 0.00 | 47 | 1007.4 |
| 20260504234610 | 66 | 0 | 0.0 | 7.8 | 0.00 | 0.00 | 0.00 | 37 | 1007.0 |
| 20260504233051 | 67 | 139 | 0.9 | 3.5 | 0.00 | 0.00 | 0.00 | 36 | 1007.0 |
| 20260504231603 | 68 | 296 | 0.9 | 7.0 | 0.00 | 0.00 | 0.00 | 35 | 1006.8 |
| 20260504230052 | 68 | 239 | 3.5 | 9.6 | 0.00 | 0.00 | 0.00 | 35 | 1006.7 |
| 20260504224555 | 0 | 0.0 | 0.0 | 0.00 | 0.00 | 0.00 | 1006.6 | ||
| 20260504223058 | 0 | 0.0 | 0.0 | 0.00 | 0.00 | 0.00 | 1006.4 | ||
| 20260504221558 | 0 | 0.0 | 0.0 | 0.00 | 0.00 | 0.00 | 1006.2 | ||
| 20260504220055 | 0 | 0.0 | 0.0 | 0.00 | 0.00 | 0.00 | 1006.4 | ||
| 20260504214554 | 0 | 0.0 | 0.0 | 0.00 | 0.00 | 0.00 | 1006.5 | ||
| 20260504213055 | 0 | 0.0 | 0.0 | 0.00 | 0.00 | 0.00 | 1006.6 | ||
| 20260504211554 | 0 | 0.0 | 0.0 | 0.00 | 0.00 | 0.00 | 1006.7 | ||
| 20260504210107 | 0 | 0.0 | 0.0 | 0.00 | 0.00 | 0.00 | 1006.8 | ||
| 20260504204602 | 0 | 0.0 | 0.0 | 0.00 | 0.00 | 0.00 | 1006.8 | ||
| 20260504203054 | 0 | 0.0 | 0.0 | 0.00 | 0.00 | 0.00 | 1007.1 | ||
| 20260504201556 | 0 | 0.0 | 0.0 | 0.00 | 0.00 | 0.00 | 1007.0 | ||
| 20260504200059 | 0 | 0.0 | 0.0 | 0.00 | 0.00 | 0.00 | 1007.2 | ||
| 20260504194607 | 0 | 0.0 | 0.0 | 0.00 | 0.01 | 0.00 | 1007.5 | ||
| 20260504193056 | 0 | 0.0 | 0.0 | 0.00 | 0.01 | 0.00 | 1007.6 | ||
| 20260504191555 | 0 | 0.0 | 0.0 | 0.00 | 0.01 | 0.00 | 1007.6 | ||
| 20260504190120 | 0 | 0.0 | 0.0 | 0.00 | 0.01 | 0.00 | 1007.8 | ||
| 20260504184556 | 0 | 0.0 | 0.0 | 0.00 | 0.01 | 0.00 | 1007.6 |